Flag Weather past 2 weeks in Sheboygan, Wisconsin, U.S.A.

Now
19 °F

Overcast.


Feels Like: 12 °F
Forecast: 18 / 31 °F
Wind: 5 mph from Northwest

Location: Sheboygan County Memorial Airport

Current Time: Nov 26, 2014 at 4:15:32 AM

Latest Report: Nov 26, 2014 at 2:53 AM


Visibility: 10 mi

Pressure: 30.21 "Hg

Humidity: 85%

Dew point: 15 °F

Location of SheboyganLocation

Historic Weather in Sheboygan — Graph

°F

Sheboygan temperature yesterday

Maximum temperature yesterday: 26 °F (at 12:53 AM)
Minimum temperature yesterday: 20 °F (at 6:53 PM)
Average temperature yesterday: 23 °F

Past Weeks' High & Low Weather Summary

 TemperatureHumidityPressure
High48 °F (Nov 23, 10:53 AM)97% (Nov 11, 4:53 AM)30.45 "Hg (Nov 11, 4:53 AM)
Low5 °F (Nov 21, 5:53 AM)33% (Nov 21, 2:53 PM)29.02 "Hg (Nov 24, 4:53 AM)
Average25 °F74%29.97 "Hg
* Reported Nov 11 2:53 AM — Nov 26 2:53 AM, Sheboygan, Weather by CustomWeather, © 2014

Note: Actual official high and low records may vary slightly from our data, if they occured in-between our weather recording intervals... More about our weather records

Advertising

Sheboygan weather history for previous 24 hours

 ConditionsComfort  
Time TempWeatherWind HumidityBarometerVisibility
2:53 AM
Nov 26
19 °FOvercast.5 mph85%30.21 "Hg10 mi
1:53 AM20 °FOvercast.3 mph78%30.21 "Hg10 mi
12:53 AM20 °FOvercast.No wind82%30.22 "Hg10 mi
11:53 PM
Nov 25
21 °FOvercast.6 mph78%30.21 "Hg10 mi
10:53 PM21 °FOvercast.3 mph81%30.20 "Hg10 mi
9:53 PM20 °FOvercast.5 mph82%30.19 "Hg10 mi
8:53 PM20 °FOvercast.5 mph82%30.19 "Hg10 mi
7:53 PM20 °FOvercast.6 mph82%30.17 "Hg10 mi
6:53 PM20 °FOvercast.9 mph78%30.17 "Hg10 mi
5:53 PM21 °FOvercast.10 mph78%30.15 "Hg10 mi
4:53 PM22 °FOvercast.6 mph75%30.15 "Hg10 mi
3:53 PM22 °FOvercast.7 mph75%30.14 "Hg10 mi
2:53 PM22 °FOvercast.15 mph75%30.11 "Hg10 mi
1:53 PM22 °FOvercast.12 mph75%30.09 "Hg10 mi
12:53 PM23 °FOvercast.16 mph74%30.06 "Hg10 mi
11:53 AM23 °FOvercast.15 mph72%30.05 "Hg10 mi
10:53 AM24 °FOvercast.15 mph75%30.05 "Hg10 mi
9:53 AM24 °FPartly sunny.12 mph77%30.02 "Hg10 mi
8:53 AM24 °FPartly sunny.13 mph81%29.99 "Hg10 mi
7:53 AM24 °FMostly cloudy.12 mph81%29.97 "Hg10 mi
6:53 AM24 °FLight snow. Ice fog.12 mph84%29.93 "Hg5 mi
5:53 AM24 °FLight snow. Ice fog.13 mph84%29.90 "Hg5 mi
4:53 AM24 °FLight snow. Ice fog.12 mph84%29.86 "Hg4 mi
Weather by CustomWeather, © 2014

See weather overviewHow to use our weather pages